User: anonymous
Location: Tyler Bend Campground
(35.9875°N, 92.7606°W)
Time: 01:15:34
(UTC-05:00)
Language:

Iridium 39 - Orbit

View from above orbital plane
View from above orbital plane
View from above satellite
View from above satellite

Ground track
Ground track

The orbit data is extracted from the following two-line orbital elements,

1 25042U 97069D   14232.19583111  .00000196  00000-0  62861-4 0  9336
2 25042 086.3935 093.5473 0001890 100.5714 259.5694 14.34220626878391
Epoch (UTC): 20 August 2014 04:41:59
Eccentricity: 0.0001890
inclination: 86.3935°
perigee height: 776 km
apogee height: 779 km
right ascension of ascending node: 93.5473°
argument of perigee: 100.5714°
revolutions per day: 14.34220626
mean anomaly at epoch: 259.5694°
orbit number at epoch: 87839

The dashed part of the orbit path shows where the satellite is in the earth's shadow,  

DLR